Location: Bay Shore Mobile Home Park
(38.5762°N, 75.0841°W)
Time: 19:57:53
(UTC+00:00)

Cosmos 1400 Rocket - Pass Details

Date: 15 November 2025
Orbit: 477 x 514 km, 81.1° (Epoch: 08 December)

Event Time Altitude Azimuth Distance (km) Brightness Sun altitude
Rises 22:48:30 0° 160° (SSE) 2,618 6.2 -12.2°
Reaches altitude 10° 22:50:53 10° 147° (SSE) 1,735 5.2 -12.7°
Maximum altitude 22:54:01 24° 92° (E) 1,085 3.7 -13.2°
Enters shadow 22:54:52 22° 70° (ENE) 1,148 3.8 -13.4°
